TimeCST,TemperatureF,Dew PointF,Humidity,Sea Level PressureIn,VisibilityMPH,Wind Direction,Wind SpeedMPH,Gust SpeedMPH,PrecipitationIn,Events,Conditions,WindDirDegrees,DateUTC
12:53 AM,54.0,44.1,69,30.26,10.0,ENE,8.1,-,N/A,,Overcast,60,2013-11-21 06:53:00
1:53 AM,55.0,45.0,69,30.26,10.0,ENE,6.9,-,N/A,,Overcast,60,2013-11-21 07:53:00
2:53 AM,54.0,45.0,72,30.26,10.0,ENE,11.5,-,N/A,,Overcast,70,2013-11-21 08:53:00
3:53 AM,54.0,45.0,72,30.27,10.0,ENE,8.1,-,N/A,,Overcast,70,2013-11-21 09:53:00
4:53 AM,54.0,45.0,72,30.27,10.0,ENE,9.2,-,N/A,,Mostly Cloudy,70,2013-11-21 10:53:00
5:05 AM,53.6,44.6,72,30.27,10.0,ENE,9.2,-,N/A,,Scattered Clouds,60,2013-11-21 11:05:00
5:53 AM,53.1,45.0,74,30.27,10.0,ENE,8.1,-,N/A,,Partly Cloudy,60,2013-11-21 11:53:00
6:07 AM,53.6,46.4,77,30.28,10.0,ENE,8.1,-,N/A,,Mostly Cloudy,70,2013-11-21 12:07:00
6:53 AM,55.0,46.9,74,30.30,10.0,ENE,10.4,-,N/A,,Overcast,60,2013-11-21 12:53:00
7:53 AM,55.0,48.9,80,30.30,10.0,ENE,12.7,-,N/A,,Overcast,70,2013-11-21 13:53:00
8:53 AM,57.0,51.1,81,30.32,10.0,East,9.2,-,N/A,,Overcast,80,2013-11-21 14:53:00
9:53 AM,59.0,52.0,78,30.32,10.0,East,9.2,-,N/A,,Overcast,80,2013-11-21 15:53:00
10:46 AM,60.8,53.6,77,30.32,10.0,ENE,9.2,-,N/A,,Overcast,70,2013-11-21 16:46:00
10:53 AM,60.1,53.1,78,30.32,10.0,ENE,9.2,-,N/A,,Overcast,60,2013-11-21 16:53:00
11:53 AM,64.9,54.0,68,30.28,10.0,NE,8.1,-,N/A,,Mostly Cloudy,50,2013-11-21 17:53:00
12:34 PM,66.2,55.4,68,30.28,10.0,ENE,9.2,-,N/A,,Mostly Cloudy,70,2013-11-21 18:34:00
12:53 PM,66.0,55.0,68,30.27,10.0,ENE,9.2,-,N/A,,Mostly Cloudy,70,2013-11-21 18:53:00
1:53 PM,66.9,55.9,68,30.25,10.0,ENE,9.2,-,N/A,,Overcast,70,2013-11-21 19:53:00
2:53 PM,68.0,57.0,68,30.24,10.0,East,6.9,-,N/A,,Scattered Clouds,90,2013-11-21 20:53:00
3:53 PM,69.1,57.9,68,30.25,10.0,East,6.9,-,N/A,,Scattered Clouds,90,2013-11-21 21:53:00
4:53 PM,66.0,57.0,73,30.25,10.0,East,6.9,-,N/A,,Scattered Clouds,80,2013-11-21 22:53:00
5:53 PM,64.9,57.0,75,30.27,10.0,ENE,6.9,-,N/A,,Mostly Cloudy,70,2013-11-21 23:53:00
6:53 PM,64.9,57.0,75,30.28,10.0,ENE,6.9,-,N/A,,Overcast,70,2013-11-22 00:53:00
7:53 PM,64.9,57.0,75,30.29,10.0,East,8.1,-,N/A,,Overcast,80,2013-11-22 01:53:00
8:53 PM,64.0,57.0,78,30.30,10.0,East,9.2,16.1,N/A,,Scattered Clouds,90,2013-11-22 02:53:00
9:53 PM,63.0,57.0,81,30.29,10.0,East,9.2,-,N/A,,Clear,80,2013-11-22 03:53:00
10:53 PM,61.0,57.0,87,30.30,10.0,ENE,3.5,-,N/A,,Clear,60,2013-11-22 04:53:00
11:53 PM,60.1,55.9,86,30.30,10.0,ENE,4.6,-,N/A,,Clear,60,2013-11-22 05:53:00